• In Uzbekistan
  • List of Countries
  • For 7 days
  • Water Temperature
  • Satellite Maps
  • Weather Map
  • Weather Widgets
  • user-avatar
    Login

    Hourly Weather Bukavu

    Today, 23 January, Tuesday

    Time Temperature Precipitation Wind Pressure Humidity
    00:00 +20°C° 0 mm 0 mps 686 mmHg 53%
    01:00 +19°C° 0 mm 0 mps 686 mmHg 55%
    02:00 +19°C° 0 mm 0 mps 686 mmHg 57%
    03:00 +19°C° 0 mm 0 mps 686 mmHg 59%
    04:00 +18°C° 0 mm 0 mps 686 mmHg 61%
    05:00 +18°C° 0 mm 0 mps 686 mmHg 63%
    06:00 +20°C° 0 mm 0 mps 687 mmHg 58%
    07:00 +22°C° 0 mm 0 mps 688 mmHg 52%
    08:00 +24°C° 0 mm 0 mps 688 mmHg 46%
    09:00 +28°C° 0 mm 0 mps 689 mmHg 37%
    10:00 +33°C° 0 mm 1 mps 689 mmHg 28%
    11:00 +37°C° 0 mm 1 mps 689 mmHg 20%
    12:00 +37°C° 0 mm 1 mps 688 mmHg 19%
    13:00 +37°C° 0 mm 1 mps 687 mmHg 19%
    14:00 +37°C° 0 mm 1 mps 687 mmHg 19%
    15:00 +35°C° 0 mm 1 mps 686 mmHg 22%
    16:00 +34°C° 0 mm 1 mps 685 mmHg 24%
    17:00 +33°C° 0 mm 1 mps 685 mmHg 26%
    18:00 +31°C° 0 mm 1 mps 685 mmHg 29%
    19:00 +29°C° 0 mm 1 mps 685 mmHg 32%
    20:00 +27°C° 0 mm 1 mps 685 mmHg 34%
    21:00 +25°C° 0 mm 0 mps 686 mmHg 35%
    22:00 +24°C° 0 mm 0 mps 686 mmHg 36%
    23:00 +24°C° 0 mm 0 mps 686 mmHg 37%

    Tomorrow, 24 January, Wednesday

    Time Temperature Precipitation Wind Pressure Humidity
    00:00 +23°C° 0 mm 0 mps 686 mmHg 38%
    01:00 +23°C° 0 mm 0 mps 686 mmHg 38%
    02:00 +23°C° 0 mm 0 mps 686 mmHg 39%
    03:00 +22°C° 0 mm 0 mps 686 mmHg 41%
    04:00 +21°C° 0 mm 0 mps 686 mmHg 42%
    05:00 +20°C° 0 mm 0 mps 686 mmHg 44%
    06:00 +21°C° 0 mm 0 mps 686 mmHg 43%
    07:00 +22°C° 0 mm 0 mps 687 mmHg 42%
    08:00 +23°C° 0 mm 0 mps 687 mmHg 41%
    09:00 +28°C° 0 mm 1 mps 688 mmHg 36%
    10:00 +30°C° 0 mm 1 mps 688 mmHg 31%
    11:00 +33°C° 0 mm 1 mps 688 mmHg 26%
    12:00 +35°C° 0 mm 1 mps 688 mmHg 22%
    13:00 +36°C° 0 mm 1 mps 687 mmHg 19%
    14:00 +39°C° 0 mm 1 mps 687 mmHg 15%
    15:00 +37°C° 0 mm 1 mps 686 mmHg 18%
    16:00 +35°C° 0 mm 1 mps 685 mmHg 21%
    17:00 +33°C° 0 mm 1 mps 685 mmHg 24%
    18:00 +31°C° 0 mm 1 mps 685 mmHg 28%
    19:00 +28°C° 0 mm 1 mps 685 mmHg 31%
    20:00 +26°C° 0 mm 1 mps 685 mmHg 35%
    21:00 +26°C° 0 mm 1 mps 685 mmHg 37%
    22:00 +25°C° 0 mm 1 mps 686 mmHg 39%
    23:00 +24°C° 0 mm 1 mps 686 mmHg 41%

    Day after tomorrow, 25 January, Thursday

    Time Temperature Precipitation Wind Pressure Humidity
    00:00 +24°C° 0 mm 1 mps 686 mmHg 43%
    01:00 +24°C° 0 mm 1 mps 686 mmHg 45%
    02:00 +24°C° 0 mm 1 mps 686 mmHg 46%
    03:00 +24°C° 0 mm 1 mps 686 mmHg 52%
    04:00 +23°C° 0 mm 1 mps 686 mmHg 58%
    05:00 +23°C° 0 mm 1 mps 686 mmHg 64%
    06:00 +23°C° 0 mm 1 mps 687 mmHg 65%
    07:00 +24°C° 0 mm 1 mps 688 mmHg 67%
    08:00 +24°C° 0 mm 1 mps 688 mmHg 69%
    09:00 +27°C° 0 mm 1 mps 689 mmHg 58%
    10:00 +31°C° 0 mm 1 mps 689 mmHg 48%
    11:00 +34°C° 0 mm 1 mps 690 mmHg 38%
    12:00 +33°C° 0 mm 1 mps 689 mmHg 37%
    13:00 +33°C° 0 mm 1 mps 688 mmHg 36%
    14:00 +32°C° 0 mm 1 mps 687 mmHg 35%
    15:00 +32°C° 0.1 mm 1 mps 686 mmHg 35%
    16:00 +32°C° 0.1 mm 1 mps 686 mmHg 35%
    17:00 +32°C° 0.1 mm 1 mps 686 mmHg 36%
    18:00 +30°C° 0 mm 1 mps 686 mmHg 45%
    19:00 +27°C° 0 mm 1 mps 686 mmHg 54%
    20:00 +24°C° 0 mm 1 mps 686 mmHg 63%
    21:00 +23°C° 0 mm 1 mps 686 mmHg 67%
    22:00 +22°C° 0 mm 1 mps 686 mmHg 72%
    23:00 +19°C° 0 mm 0 mps 686 mmHg 77%

    26 January, Friday

    Time Temperature Precipitation Wind Pressure Humidity
    00:00 +19°C° 0 mm 0 mps 686 mmHg 79%
    01:00 +18°C° 0 mm 0 mps 686 mmHg 82%
    02:00 +18°C° 0 mm 0 mps 686 mmHg 84%
    03:00 +18°C° 0 mm 0 mps 686 mmHg 87%
    04:00 +17°C° 0 mm 0 mps 686 mmHg 89%
    05:00 +17°C° 0 mm 0 mps 686 mmHg 91%
    06:00 +21°C° 0 mm 1 mps 687 mmHg 84%
    07:00 +23°C° 0 mm 1 mps 688 mmHg 77%
    08:00 +25°C° 0 mm 1 mps 689 mmHg 69%
    09:00 +28°C° 0 mm 1 mps 689 mmHg 57%
    10:00 +32°C° 0 mm 1 mps 690 mmHg 44%
    11:00 +36°C° 0 mm 1 mps 690 mmHg 31%
    12:00 +33°C° 0 mm 0 mps 689 mmHg 32%
    13:00 +32°C° 0 mm 0 mps 688 mmHg 33%
    14:00 +31°C° 0 mm 0 mps 686 mmHg 34%
    15:00 +31°C° 0 mm 0 mps 686 mmHg 35%
    16:00 +30°C° 0 mm 0 mps 686 mmHg 36%
    17:00 +30°C° 0 mm 0 mps 685 mmHg 37%
    18:00 +30°C° 0 mm 1 mps 686 mmHg 44%
    19:00 +27°C° 0 mm 1 mps 686 mmHg 50%
    20:00 +25°C° 0 mm 1 mps 686 mmHg 56%
    21:00 +23°C° 0 mm 0 mps 686 mmHg 59%
    22:00 +22°C° 0 mm 0 mps 686 mmHg 61%
    23:00 +21°C° 0 mm 0 mps 686 mmHg 64%

    27 January, Saturday

    Time Temperature Precipitation Wind Pressure Humidity
    00:00 +21°C° 0 mm 0 mps 686 mmHg 65%
    01:00 +20°C° 0 mm 0 mps 686 mmHg 67%
    02:00 +20°C° 0 mm 0 mps 685 mmHg 69%
    03:00 +19°C° 0 mm 0 mps 685 mmHg 71%
    04:00 +19°C° 0 mm 0 mps 686 mmHg 73%
    05:00 +18°C° 0 mm 0 mps 686 mmHg 76%
    06:00 +20°C° 0 mm 0 mps 687 mmHg 68%
    07:00 +23°C° 0 mm 0 mps 688 mmHg 61%
    08:00 +25°C° 0 mm 0 mps 689 mmHg 54%
    09:00 +29°C° 0 mm 1 mps 689 mmHg 43%
    10:00 +32°C° 0 mm 1 mps 689 mmHg 32%
    11:00 +36°C° 0 mm 2 mps 689 mmHg 21%
    12:00 +37°C° 0 mm 2 mps 688 mmHg 19%
    13:00 +38°C° 0 mm 2 mps 687 mmHg 17%
    14:00 +39°C° 0 mm 2 mps 686 mmHg 15%
    15:00 +39°C° 0 mm 2 mps 686 mmHg 15%
    16:00 +38°C° 0 mm 2 mps 685 mmHg 15%
    17:00 +36°C° 0 mm 1 mps 685 mmHg 15%
    18:00 +33°C° 0 mm 1 mps 685 mmHg 19%
    19:00 +30°C° 0 mm 1 mps 685 mmHg 22%
    20:00 +27°C° 0 mm 1 mps 685 mmHg 26%
    21:00 +26°C° 0 mm 1 mps 685 mmHg 27%
    22:00 +25°C° 0 mm 1 mps 686 mmHg 28%
    23:00 +24°C° 0 mm 1 mps 686 mmHg 28%

    28 January, Sunday

    Time Temperature Precipitation Wind Pressure Humidity
    00:00 +23°C° 0 mm 1 mps 685 mmHg 32%
    01:00 +22°C° 0 mm 1 mps 685 mmHg 35%
    02:00 +19°C° 0 mm 0 mps 684 mmHg 38%
    03:00 +19°C° 0 mm 0 mps 685 mmHg 41%
    04:00 +18°C° 0 mm 0 mps 685 mmHg 43%
    05:00 +18°C° 0 mm 0 mps 685 mmHg 46%
    06:00 +20°C° 0 mm 0 mps 686 mmHg 41%
    07:00 +22°C° 0 mm 0 mps 687 mmHg 36%
    08:00 +24°C° 0 mm 0 mps 688 mmHg 32%
    09:00 +29°C° 0 mm 1 mps 688 mmHg 25%
    10:00 +32°C° 0 mm 2 mps 688 mmHg 19%
    11:00 +36°C° 0 mm 2 mps 688 mmHg 13%
    12:00 +37°C° 0 mm 2 mps 687 mmHg 12%
    13:00 +38°C° 0 mm 2 mps 686 mmHg 12%
    14:00 +39°C° 0 mm 2 mps 685 mmHg 11%
    15:00 +39°C° 0 mm 2 mps 685 mmHg 12%
    16:00 +38°C° 0 mm 2 mps 685 mmHg 12%
    17:00 +38°C° 0 mm 2 mps 684 mmHg 13%
    18:00 +33°C° 0 mm 1 mps 684 mmHg 16%
    19:00 +30°C° 0 mm 1 mps 684 mmHg 20%
    20:00 +27°C° 0 mm 1 mps 684 mmHg 24%
    21:00 +26°C° 0 mm 1 mps 685 mmHg 25%
    22:00 +25°C° 0 mm 1 mps 685 mmHg 26%
    23:00 +24°C° 0 mm 1 mps 685 mmHg 26%
    Show more